This is the latest recevied weather packets stored in our database for station/object K4CRS-13. If no packets are shown the sender has not sent any weather packets the latest 10 day(s).
| Time | Temp. | Humidity | Pressure | Rain* | Wind** | Luminosity | Snow |
|---|---|---|---|---|---|---|---|
| 1777156486 | 25° C | 62% | 1043.2 hPa | 0 mm | - | 92 W/m² | - |
| 1777156183 | 25.56° C | 61% | 1043.3 hPa | 0 mm | - | 59 W/m² | - |
| 1777155879 | 25.56° C | 59% | 1043.3 hPa | 0 mm | - | 107 W/m² | - |
| 1777155574 | 26.11° C | 59% | 1043.2 hPa | 0 mm | - | 74 W/m² | - |
| 1777155272 | 26.11° C | 60% | 1043.3 hPa | 0 mm | - | 303 W/m² | - |
| 1777154969 | 26.11° C | 59% | 1043.2 hPa | 0 mm | - | 318 W/m² | - |
| 1777154665 | 25.56° C | 61% | 1043.3 hPa | 0 mm | - | 351 W/m² | - |
| 1777154362 | 25° C | 62% | 1043.3 hPa | 0 mm | - | 116 W/m² | - |
| 1777154058 | 25° C | 61% | 1043.3 hPa | 0 mm | - | 94 W/m² | - |
| 1777153754 | 25° C | 61% | 1043.3 hPa | 0 mm | - | 134 W/m² | - |
| 1777153449 | 25° C | 61% | 1043.2 hPa | 0 mm | - | 104 W/m² | - |
| 1777153145 | 25° C | 62% | 1043.3 hPa | 0 mm | - | 464 W/m² | - |
| 1777152842 | 25° C | 63% | 1043.2 hPa | 0 mm | - | 107 W/m² | - |
| 1777152539 | 25.56° C | 61% | 1043.4 hPa | 0 mm | - | 131 W/m² | - |
| 1777152235 | 26.11° C | 59% | 1043.1 hPa | 0 mm | - | 130 W/m² | - |
| 1777151930 | 26.67° C | 57% | 1043.3 hPa | 0 mm | - | 505 W/m² | - |
| 1777151627 | 27.22° C | 58% | 1043.2 hPa | 0 mm | - | 519 W/m² | - |
| 1777151324 | 26.11° C | 60% | 1043.1 hPa | 0 mm | - | 586 W/m² | - |
| 1777151024 | 25.56° C | 62% | 1043.5 hPa | 0 mm | - | 258 W/m² | - |
| 1777150724 | 25.56° C | 62% | 1043.2 hPa | 0 mm | - | 125 W/m² | - |
| 1777150419 | 25.56° C | 60% | 1043.4 hPa | 0 mm | - | 135 W/m² | - |
| 1777150117 | 25.56° C | 60% | 1043.5 hPa | 0 mm | - | 109 W/m² | - |
| 1777149813 | 25.56° C | 60% | 1043.4 hPa | 0 mm | - | 427 W/m² | - |
| 1777149510 | 25° C | 60% | 1043.5 hPa | 0 mm | - | 150 W/m² | - |
| 1777149206 | 26.11° C | 59% | 1043.4 hPa | 0 mm | - | 142 W/m² | - |
* Rain latest hour (hover to see other rain measurements)
** Current wind speed in m/s (hover to see current wind gust speed)